Regional Weather Roundup
Issued by NWS

Home | Current Version | Previous Version | Graphics & Text | Print | Product List | Glossary On
Versions: 1 2 3 4 5 6 7 8 9 10 11 12 13 14 15 16 17 18 19 20 21 22 23 24 25 26 27 28 29 30 31 32 33 34 35 36 37 38 39 40 41 42 43 44 45 46 47 48 49 50
000
ASUS43 KFSD 271102
RWRSD

WEATHER ROUNDUP FOR SOUTH DAKOTA
NATIONAL WEATHER SERVICE SIOUX FALLS SD
600 AM CDT SAT MAY 27 2017

NOTE: "FAIR" INDICATES FEW OR NO CLOUDS BELOW 12,000 FEET WITH NO
SIGNIFICANT WEATHER AND/OR OBSTRUCTIONS TO VISIBILITY.


SDZ001>005-009-010-012>017-271200-
NORTHWEST AND NORTH CENTRAL SOUTH DAKOTA

CITY           SKY/WX    TMP DP  RH WIND       PRES   REMARKS
BUFFALO          N/A     42  37  82 W7        29.90R
FAITH            N/A     49  45  86 SW9       29.93S
MOBRIDGE       PTCLDY    54  40  59 NW3       29.88R
$$

SDZ012>016-024>037-041>051-057-063-072>074-271200-
SOUTHWEST AND SOUTH CENTRAL SOUTH DAKOTA

CITY           SKY/WX    TMP DP  RH WIND       PRES   REMARKS
RAPID CTY ARPT CLOUDY    48  45  89 NW6       29.98R
PIERRE         CLOUDY    57  45  64 NW8       29.92R
CUSTER         CLOUDY    42  38  85 NW3       30.02R
ELLSWORTH AFB  CLOUDY    48  48 100 W6        29.97S
PHILIP         CLOUDY    51  51 100 CALM      29.96S
PINE RIDGE     CLOUDY    51  49  92 CALM      29.99F
SPEARFISH      MOCLDY    46  41  81 W6        30.00S
WINNER         CLOUDY    56  50  80 W8        29.96R
$$

SDZ004>011-016>023-039-040-271200-
NORTHEAST SOUTH DAKOTA

CITY           SKY/WX    TMP DP  RH WIND       PRES   REMARKS
ABERDEEN       CLOUDY    50  43  77 SW6       29.89R
WATERTOWN      CLOUDY    49  45  86 S6        29.90R
BROOKINGS      CLOUDY    54  49  83 CALM      29.91R
SISSETON         N/A     56  47  71 W3        29.85S
$$

SDZ017-020-022-023-036>040-048>070-271200-
SOUTHEAST SOUTH DAKOTA

CITY           SKY/WX    TMP DP  RH WIND       PRES   REMARKS
SIOUX FALLS    CLOUDY    53  49  86 W5        29.91R
HURON          LGT RAIN  55  49  80 NW6       29.92R
CHAMBERLAIN    CLOUDY    58  50  76 W3        29.93R
MITCHELL       CLOUDY    58  47  66 W5        29.91R
YANKTON        CLOUDY    55  51  86 NW8       29.93S
$$

ABBREVIATIONS USED IN REMARKS
   TC - TEMPERATURE IN CELSIUS
  WCI - WIND CHILL INDEX
   HX - HEAT INDEX
  VSB - VISIBILITY





USA.gov is the U.S. government's official web portal to all federal, state and local government web resources and services.